• în România
  • Lista ţărilor
  • Pe 7 zile
  • Temperatura apei
  • Hartă satelitară
  • Meteo pe hartă
  • Widget-uri
  • user-avatar
    Intrare

    Meteo pe oră la Neuquén

    Astăzi, 18 Ianuarie, Joi

    Timp Temperatura Precipitaţii Vânt Presiune Umiditate
    00:00 +28°C° 0 mm 7 m/s 734 mmHg 26%
    01:00 +26°C° 0 mm 6 m/s 734 mmHg 28%
    02:00 +26°C° 0 mm 5 m/s 734 mmHg 30%
    03:00 +25°C° 0 mm 4 m/s 734 mmHg 32%
    04:00 +23°C° 0 mm 4 m/s 735 mmHg 33%
    05:00 +25°C° 0 mm 4 m/s 735 mmHg 32%
    06:00 +26°C° 0 mm 4 m/s 735 mmHg 30%
    07:00 +24°C° 0 mm 6 m/s 736 mmHg 32%
    08:00 +26°C° 0 mm 4 m/s 736 mmHg 30%
    09:00 +27°C° 0 mm 3 m/s 735 mmHg 27%
    10:00 +28°C° 0 mm 2 m/s 735 mmHg 24%
    11:00 +30°C° 0 mm 2 m/s 735 mmHg 22%
    12:00 +31°C° 0 mm 2 m/s 734 mmHg 20%
    13:00 +33°C° 0 mm 3 m/s 734 mmHg 17%
    14:00 +34°C° 0 mm 3 m/s 734 mmHg 16%
    15:00 +34°C° 0 mm 3 m/s 733 mmHg 15%
    16:00 +35°C° 0 mm 3 m/s 733 mmHg 14%
    17:00 +35°C° 0 mm 3 m/s 733 mmHg 14%
    18:00 +34°C° 0 mm 3 m/s 732 mmHg 15%
    19:00 +34°C° 0 mm 3 m/s 732 mmHg 15%
    20:00 +33°C° 0 mm 3 m/s 733 mmHg 15%
    21:00 +33°C° 0 mm 3 m/s 733 mmHg 16%
    22:00 +31°C° 0 mm 2 m/s 733 mmHg 17%
    23:00 +30°C° 0 mm 3 m/s 733 mmHg 17%

    Mâine, 19 Ianuarie, Vineri

    Timp Temperatura Precipitaţii Vânt Presiune Umiditate
    00:00 +30°C° 0 mm 3 m/s 733 mmHg 17%
    01:00 +30°C° 0 mm 3 m/s 733 mmHg 18%
    02:00 +29°C° 0 mm 3 m/s 733 mmHg 19%
    03:00 +28°C° 0 mm 3 m/s 733 mmHg 20%
    04:00 +28°C° 0 mm 3 m/s 734 mmHg 21%
    05:00 +28°C° 0 mm 5 m/s 734 mmHg 21%
    06:00 +29°C° 0 mm 6 m/s 734 mmHg 21%
    07:00 +30°C° 0 mm 7 m/s 735 mmHg 21%
    08:00 +32°C° 0 mm 6 m/s 735 mmHg 20%
    09:00 +33°C° 0 mm 5 m/s 735 mmHg 18%
    10:00 +35°C° 0 mm 4 m/s 735 mmHg 17%
    11:00 +36°C° 0 mm 4 m/s 734 mmHg 15%
    12:00 +37°C° 0 mm 3 m/s 733 mmHg 14%
    13:00 +38°C° 0 mm 2 m/s 733 mmHg 13%
    14:00 +38°C° 0 mm 2 m/s 732 mmHg 12%
    15:00 +39°C° 0 mm 2 m/s 732 mmHg 12%
    16:00 +39°C° 0 mm 3 m/s 731 mmHg 11%
    17:00 +39°C° 0 mm 3 m/s 731 mmHg 12%
    18:00 +38°C° 0 mm 4 m/s 730 mmHg 12%
    19:00 +39°C° 0 mm 5 m/s 730 mmHg 13%
    20:00 +37°C° 0 mm 5 m/s 730 mmHg 14%
    21:00 +36°C° 0 mm 6 m/s 730 mmHg 15%
    22:00 +35°C° 0 mm 6 m/s 731 mmHg 16%
    23:00 +34°C° 0 mm 6 m/s 730 mmHg 17%

    Poimâine, 20 Ianuarie, Sâmbătă

    Timp Temperatura Precipitaţii Vânt Presiune Umiditate
    00:00 +34°C° 0 mm 6 m/s 730 mmHg 19%
    01:00 +33°C° 0 mm 6 m/s 730 mmHg 20%
    02:00 +32°C° 0 mm 5 m/s 729 mmHg 21%
    03:00 +32°C° 0 mm 5 m/s 729 mmHg 22%
    04:00 +30°C° 0 mm 5 m/s 729 mmHg 23%
    05:00 +32°C° 0 mm 4 m/s 729 mmHg 21%
    06:00 +33°C° 0 mm 4 m/s 729 mmHg 20%
    07:00 +35°C° 0 mm 4 m/s 729 mmHg 19%
    08:00 +36°C° 0 mm 4 m/s 729 mmHg 17%
    09:00 +38°C° 0 mm 4 m/s 729 mmHg 15%
    10:00 +41°C° 0 mm 4 m/s 729 mmHg 14%
    11:00 +42°C° 0 mm 5 m/s 728 mmHg 13%
    12:00 +43°C° 0 mm 5 m/s 728 mmHg 11%
    13:00 +45°C° 0 mm 5 m/s 727 mmHg 10%
    14:00 +44°C° 0 mm 6 m/s 727 mmHg 10%
    15:00 +44°C° 0 mm 6 m/s 726 mmHg 10%
    16:00 +44°C° 0 mm 6 m/s 726 mmHg 10%
    17:00 +43°C° 0 mm 7 m/s 726 mmHg 11%
    18:00 +41°C° 0 mm 7 m/s 726 mmHg 12%
    19:00 +40°C° 0 mm 7 m/s 726 mmHg 12%
    20:00 +39°C° 0,1 mm 7 m/s 727 mmHg 16%
    21:00 +38°C° 0,1 mm 7 m/s 727 mmHg 19%
    22:00 +35°C° 0,1 mm 7 m/s 728 mmHg 23%
    23:00 +35°C° 0 mm 7 m/s 727 mmHg 24%

    21 Ianuarie, Duminică

    Timp Temperatura Precipitaţii Vânt Presiune Umiditate
    00:00 +34°C° 0 mm 6 m/s 727 mmHg 26%
    01:00 +33°C° 0 mm 6 m/s 727 mmHg 28%
    02:00 +32°C° 0 mm 7 m/s 727 mmHg 30%
    03:00 +32°C° 0 mm 8 m/s 727 mmHg 32%
    04:00 +31°C° 0 mm 8 m/s 727 mmHg 34%
    05:00 +31°C° 0 mm 8 m/s 727 mmHg 34%
    06:00 +31°C° 0 mm 8 m/s 727 mmHg 34%
    07:00 +31°C° 0 mm 8 m/s 727 mmHg 35%
    08:00 +32°C° 0 mm 7 m/s 727 mmHg 32%
    09:00 +33°C° 0 mm 6 m/s 727 mmHg 30%
    10:00 +34°C° 0 mm 5 m/s 727 mmHg 28%
    11:00 +35°C° 0 mm 5 m/s 727 mmHg 25%
    12:00 +36°C° 0 mm 4 m/s 726 mmHg 23%
    13:00 +37°C° 0 mm 4 m/s 726 mmHg 20%
    14:00 +38°C° 0 mm 4 m/s 726 mmHg 18%
    15:00 +39°C° 0 mm 5 m/s 725 mmHg 16%
    16:00 +40°C° 0 mm 5 m/s 725 mmHg 14%
    17:00 +38°C° 0 mm 4 m/s 725 mmHg 13%
    18:00 +37°C° 0 mm 4 m/s 725 mmHg 13%
    19:00 +37°C° 0 mm 4 m/s 725 mmHg 12%
    20:00 +35°C° 0 mm 6 m/s 725 mmHg 13%
    21:00 +34°C° 0 mm 8 m/s 725 mmHg 14%
    22:00 +32°C° 0 mm 11 m/s 725 mmHg 15%
    23:00 +31°C° 0 mm 10 m/s 725 mmHg 16%

    22 Ianuarie, Luni

    Timp Temperatura Precipitaţii Vânt Presiune Umiditate
    00:00 +29°C° 0 mm 10 m/s 725 mmHg 17%
    01:00 +28°C° 0 mm 10 m/s 725 mmHg 18%
    02:00 +28°C° 0 mm 10 m/s 725 mmHg 19%
    03:00 +27°C° 0 mm 10 m/s 725 mmHg 20%
    04:00 +26°C° 0 mm 9 m/s 725 mmHg 21%
    05:00 +27°C° 0 mm 9 m/s 725 mmHg 19%
    06:00 +27°C° 0 mm 9 m/s 726 mmHg 18%
    07:00 +27°C° 0 mm 9 m/s 726 mmHg 16%
    08:00 +29°C° 0 mm 8 m/s 726 mmHg 14%
    09:00 +32°C° 0 mm 8 m/s 726 mmHg 12%
    10:00 +33°C° 0 mm 8 m/s 726 mmHg 10%
    11:00 +35°C° 0 mm 8 m/s 726 mmHg 9%
    12:00 +37°C° 0 mm 8 m/s 725 mmHg 8%
    13:00 +38°C° 0 mm 8 m/s 725 mmHg 7%
    14:00 +38°C° 0 mm 8 m/s 725 mmHg 7%
    15:00 +38°C° 0 mm 8 m/s 724 mmHg 7%
    16:00 +39°C° 0 mm 8 m/s 724 mmHg 7%
    17:00 +38°C° 0 mm 8 m/s 724 mmHg 9%
    18:00 +37°C° 0 mm 9 m/s 725 mmHg 10%
    19:00 +34°C° 0 mm 9 m/s 725 mmHg 12%
    20:00 +33°C° 0 mm 10 m/s 725 mmHg 14%
    21:00 +31°C° 0 mm 10 m/s 726 mmHg 17%
    22:00 +29°C° 0 mm 11 m/s 726 mmHg 19%
    23:00 +28°C° 0 mm 11 m/s 726 mmHg 21%

    23 Ianuarie, Marţi

    Timp Temperatura Precipitaţii Vânt Presiune Umiditate
    00:00 +27°C° 0 mm 10 m/s 726 mmHg 23%
    01:00 +26°C° 0 mm 10 m/s 726 mmHg 25%
    02:00 +24°C° 0 mm 9 m/s 726 mmHg 25%
    03:00 +23°C° 0 mm 8 m/s 726 mmHg 25%
    04:00 +23°C° 0 mm 8 m/s 727 mmHg 25%
    05:00 +23°C° 0 mm 8 m/s 727 mmHg 24%
    06:00 +24°C° 0 mm 8 m/s 728 mmHg 22%
    07:00 +24°C° 0 mm 8 m/s 728 mmHg 21%
    08:00 +27°C° 0 mm 8 m/s 728 mmHg 19%
    09:00 +28°C° 0 mm 7 m/s 728 mmHg 17%
    10:00 +29°C° 0 mm 7 m/s 728 mmHg 15%
    11:00 +30°C° 0 mm 7 m/s 728 mmHg 13%
    12:00 +32°C° 0 mm 7 m/s 728 mmHg 12%
    13:00 +33°C° 0 mm 6 m/s 727 mmHg 11%
    14:00 +34°C° 0 mm 6 m/s 727 mmHg 10%
    15:00 +34°C° 0 mm 6 m/s 727 mmHg 10%
    16:00 +35°C° 0 mm 6 m/s 727 mmHg 9%
    17:00 +34°C° 0 mm 6 m/s 727 mmHg 9%
    18:00 +33°C° 0 mm 6 m/s 727 mmHg 10%
    19:00 +33°C° 0 mm 6 m/s 728 mmHg 10%
    20:00 +30°C° 0 mm 6 m/s 728 mmHg 13%
    21:00 +29°C° 0 mm 7 m/s 729 mmHg 16%
    22:00 +27°C° 0 mm 7 m/s 730 mmHg 19%
    23:00 +26°C° 0 mm 7 m/s 730 mmHg 23%
    Arată mai mult